When you browse on this site, cookies collect data to enhance your experience and personalize the content and advertising you see.
Visit our Privacy Policy to learn more. By continuing to use the site, you agree to this use of cookies and data.

Hourly Weather Middlesbrough

Today, 10 July, Friday

Time Temperature Precipitation Wind Pressure Humidity
00:00 +10°C° 0 mm 1 mps 759 mmHg 91%
01:00 +10°C° 0.3 mm 1 mps 759 mmHg 92%
02:00 +10°C° 0.3 mm 1 mps 759 mmHg 92%
03:00 +10°C° 0.3 mm 1 mps 759 mmHg 93%
04:00 +11°C° 0.4 mm 1 mps 759 mmHg 92%
05:00 +11°C° 0.4 mm 1 mps 759 mmHg 92%
06:00 +12°C° 0 mm 1 mps 759 mmHg 92%
07:00 +13°C° 0.2 mm 1 mps 759 mmHg 88%
08:00 +14°C° 0.2 mm 2 mps 760 mmHg 84%
09:00 +15°C° 0.2 mm 2 mps 760 mmHg 79%
10:00 +15°C° 0.7 mm 2 mps 760 mmHg 79%
11:00 +16°C° 0.7 mm 2 mps 760 mmHg 79%
12:00 +16°C° 0.7 mm 3 mps 761 mmHg 79%
13:00 +16°C° 0.5 mm 3 mps 761 mmHg 77%
14:00 +16°C° 0.5 mm 2 mps 761 mmHg 76%
15:00 +16°C° 0.5 mm 2 mps 761 mmHg 74%
16:00 +16°C° 0.3 mm 2 mps 762 mmHg 74%
17:00 +16°C° 0.3 mm 1 mps 762 mmHg 74%
18:00 +16°C° 0.3 mm 1 mps 762 mmHg 74%
19:00 +15°C° 0.1 mm 2 mps 763 mmHg 79%
20:00 +13°C° 0.1 mm 3 mps 763 mmHg 83%
21:00 +11°C° 0.1 mm 3 mps 763 mmHg 87%
22:00 +11°C° 0 mm 4 mps 764 mmHg 88%
23:00 +10°C° 0 mm 4 mps 764 mmHg 89%

Tomorrow, 11 July, Saturday

Time Temperature Precipitation Wind Pressure Humidity
00:00 +9°C° 0 mm 5 mps 764 mmHg 90%
01:00 +8°C° 0 mm 5 mps 764 mmHg 90%
02:00 +8°C° 0 mm 5 mps 764 mmHg 90%
03:00 +7°C° 0 mm 5 mps 764 mmHg 90%
04:00 +8°C° 0 mm 5 mps 765 mmHg 89%
05:00 +10°C° 0 mm 4 mps 765 mmHg 88%
06:00 +10°C° 0 mm 4 mps 765 mmHg 87%
07:00 +12°C° 0 mm 4 mps 766 mmHg 82%
08:00 +13°C° 0 mm 4 mps 766 mmHg 77%
09:00 +15°C° 0 mm 4 mps 766 mmHg 72%
10:00 +15°C° 0 mm 4 mps 767 mmHg 70%
11:00 +17°C° 0 mm 4 mps 767 mmHg 68%
12:00 +17°C° 0 mm 3 mps 767 mmHg 66%
13:00 +18°C° 0 mm 3 mps 767 mmHg 65%
14:00 +18°C° 0 mm 3 mps 767 mmHg 65%
15:00 +18°C° 0 mm 3 mps 768 mmHg 64%
16:00 +18°C° 0.1 mm 3 mps 768 mmHg 67%
17:00 +18°C° 0.1 mm 3 mps 768 mmHg 71%
18:00 +17°C° 0.1 mm 3 mps 768 mmHg 74%
19:00 +16°C° 0 mm 3 mps 768 mmHg 79%
20:00 +13°C° 0 mm 3 mps 768 mmHg 84%
21:00 +12°C° 0 mm 3 mps 769 mmHg 88%
22:00 +11°C° 0 mm 3 mps 769 mmHg 89%
23:00 +10°C° 0 mm 3 mps 769 mmHg 89%

Day after tomorrow, 12 July, Sunday

Time Temperature Precipitation Wind Pressure Humidity
00:00 +10°C° 0 mm 3 mps 768 mmHg 90%
01:00 +10°C° 0 mm 3 mps 768 mmHg 90%
02:00 +9°C° 0 mm 3 mps 769 mmHg 90%
03:00 +9°C° 0 mm 3 mps 769 mmHg 90%
04:00 +10°C° 0 mm 2 mps 769 mmHg 87%
05:00 +12°C° 0 mm 2 mps 769 mmHg 85%
06:00 +13°C° 0 mm 2 mps 769 mmHg 83%
07:00 +14°C° 0 mm 2 mps 769 mmHg 78%
08:00 +15°C° 0 mm 2 mps 769 mmHg 73%
09:00 +17°C° 0 mm 2 mps 769 mmHg 68%
10:00 +18°C° 0 mm 2 mps 769 mmHg 66%
11:00 +19°C° 0 mm 2 mps 769 mmHg 63%
12:00 +19°C° 0 mm 2 mps 769 mmHg 60%
13:00 +20°C° 0 mm 2 mps 769 mmHg 61%
14:00 +20°C° 0 mm 2 mps 769 mmHg 63%
15:00 +20°C° 0 mm 3 mps 769 mmHg 65%
16:00 +19°C° 0 mm 3 mps 769 mmHg 68%
17:00 +19°C° 0 mm 3 mps 768 mmHg 72%
18:00 +18°C° 0 mm 3 mps 768 mmHg 75%
19:00 +17°C° 0 mm 3 mps 768 mmHg 77%
20:00 +16°C° 0 mm 3 mps 768 mmHg 79%
21:00 +13°C° 0 mm 3 mps 768 mmHg 81%
22:00 +13°C° 0 mm 3 mps 768 mmHg 82%
23:00 +12°C° 0 mm 3 mps 768 mmHg 83%

13 July, Monday

Time Temperature Precipitation Wind Pressure Humidity
00:00 +11°C° 0 mm 3 mps 768 mmHg 83%
01:00 +11°C° 0 mm 3 mps 767 mmHg 83%
02:00 +11°C° 0 mm 3 mps 767 mmHg 82%
03:00 +11°C° 0 mm 3 mps 767 mmHg 81%
04:00 +12°C° 0 mm 3 mps 766 mmHg 82%
05:00 +12°C° 0 mm 3 mps 766 mmHg 82%
06:00 +13°C° 0 mm 4 mps 766 mmHg 82%
07:00 +14°C° 0 mm 4 mps 766 mmHg 79%
08:00 +14°C° 0 mm 4 mps 766 mmHg 76%
09:00 +15°C° 0 mm 4 mps 765 mmHg 73%
10:00 +15°C° 0.1 mm 4 mps 765 mmHg 75%
11:00 +15°C° 0.1 mm 4 mps 765 mmHg 77%
12:00 +14°C° 0.1 mm 4 mps 764 mmHg 79%
13:00 +15°C° 0.3 mm 4 mps 764 mmHg 83%
14:00 +15°C° 0.3 mm 4 mps 764 mmHg 86%
15:00 +15°C° 0.3 mm 4 mps 763 mmHg 89%
16:00 +15°C° 0 mm 4 mps 763 mmHg 88%
17:00 +15°C° 0 mm 4 mps 763 mmHg 88%
18:00 +17°C° 0 mm 4 mps 762 mmHg 88%
19:00 +15°C° 0.2 mm 4 mps 762 mmHg 89%
20:00 +15°C° 0.2 mm 4 mps 762 mmHg 91%
21:00 +14°C° 0.2 mm 4 mps 761 mmHg 92%
22:00 +14°C° 0.1 mm 4 mps 761 mmHg 92%
23:00 +14°C° 0.1 mm 4 mps 761 mmHg 93%

14 July, Tuesday

Time Temperature Precipitation Wind Pressure Humidity
00:00 +14°C° 0.1 mm 4 mps 761 mmHg 94%
01:00 +14°C° 0.1 mm 4 mps 760 mmHg 94%
02:00 +14°C° 0.1 mm 3 mps 760 mmHg 95%
03:00 +14°C° 0.1 mm 3 mps 760 mmHg 96%
04:00 +14°C° 0.1 mm 3 mps 760 mmHg 95%
05:00 +15°C° 0.1 mm 2 mps 760 mmHg 94%
06:00 +16°C° 0.1 mm 2 mps 760 mmHg 93%
07:00 +16°C° 0 mm 2 mps 760 mmHg 88%
08:00 +17°C° 0 mm 2 mps 759 mmHg 82%
09:00 +18°C° 0 mm 3 mps 759 mmHg 77%
10:00 +19°C° 0.1 mm 2 mps 759 mmHg 73%
11:00 +19°C° 0.1 mm 2 mps 759 mmHg 70%
12:00 +20°C° 0.1 mm 2 mps 759 mmHg 66%
13:00 +20°C° 0.1 mm 2 mps 759 mmHg 67%
14:00 +20°C° 0.1 mm 2 mps 759 mmHg 68%
15:00 +20°C° 0.1 mm 2 mps 759 mmHg 69%
16:00 +19°C° 0.2 mm 2 mps 759 mmHg 72%
17:00 +19°C° 0.2 mm 2 mps 759 mmHg 76%
18:00 +18°C° 0.2 mm 2 mps 759 mmHg 79%
19:00 +17°C° 0.1 mm 2 mps 759 mmHg 82%
20:00 +16°C° 0.1 mm 2 mps 759 mmHg 84%
21:00 +14°C° 0.1 mm 2 mps 759 mmHg 87%
22:00 +14°C° 0 mm 2 mps 758 mmHg 88%
23:00 +14°C° 0 mm 2 mps 758 mmHg 89%

15 July, Wednesday

Time Temperature Precipitation Wind Pressure Humidity
00:00 +13°C° 0 mm 2 mps 758 mmHg 89%
01:00 +13°C° 0.1 mm 2 mps 758 mmHg 91%
02:00 +12°C° 0.1 mm 3 mps 757 mmHg 92%
03:00 +12°C° 0.1 mm 3 mps 757 mmHg 93%
04:00 +13°C° 0.5 mm 3 mps 757 mmHg 94%
05:00 +13°C° 0.5 mm 3 mps 757 mmHg 95%
06:00 +13°C° 0.5 mm 3 mps 757 mmHg 96%
07:00 +13°C° 0.3 mm 3 mps 757 mmHg 95%
08:00 +14°C° 0.3 mm 3 mps 757 mmHg 95%
09:00 +14°C° 0.3 mm 3 mps 757 mmHg 95%
10:00 +16°C° 0 mm 3 mps 757 mmHg 93%
11:00 +16°C° 0 mm 3 mps 757 mmHg 92%
12:00 +17°C° 0 mm 2 mps 758 mmHg 90%
13:00 +17°C° 0 mm 3 mps 758 mmHg 87%
14:00 +18°C° 0 mm 3 mps 758 mmHg 84%
15:00 +19°C° 0 mm 3 mps 758 mmHg 81%
16:00 +19°C° 0 mm 4 mps 758 mmHg 82%
17:00 +19°C° 0 mm 4 mps 758 mmHg 83%
18:00 +19°C° 0 mm 4 mps 759 mmHg 83%
19:00 +18°C° 0 mm 3 mps 759 mmHg 86%
20:00 +16°C° 0 mm 3 mps 759 mmHg 89%
21:00 +15°C° 0 mm 2 mps 760 mmHg 92%
22:00 +15°C° 0 mm 2 mps 760 mmHg 92%
23:00 +13°C° 0 mm 3 mps 760 mmHg 93%
Show more